Weather in Linevo Ozero

Russia / Zabaykalsky Krai     51°21′51″N   110°38′51″E
temp.,
°C
wind,
m/s
gust,
m/s
humid.,
%
clouds,
%
prec.,
mm/h
press.,
hPa
HPBL,
m
12 april, mon
mon1200:00−8nw49440 0.0 1033666
03:00−9wnw38482 0.0 1034582
06:00−10wnw265530 0.0 1034297
09:00−8nw36444 0.0 10341101
12:00−3wnw46264 0.0 10301768
15:00+1nw582198 0.0 10252362
18:000wnw5831100 0.0 10242196
21:00−3nw3756100 0.0 1025985
13 april, tue
tue1300:00−5nw3755100 0.0 1025498
03:00−7wnw11695 0.0 102610
06:00−9wsw11772 0.0 102610
09:00−5w13545 0.0 1025447
12:00+1nw46395 0.0 10201402
15:00+5wnw47295 0.0 10152007
18:00+6w5828100 0.0 10122249
21:00+2wnw41050100 0.0 1013484
14 april, wed
wed1400:00−1w41182100 0.0 1013676
03:00−1w51086100 0.0 1013771
06:00−2wnw4986100 0.0 1014828
09:00−1wnw5764100 0.1 1014892
12:00+1nw4641100 0.0 10121552
15:00+2nw5735100 0.0 10112019
18:00+2nw5733100 0.0 10102086
21:00−2nw51141100 0.0 1013955
15 april, thu
thu1500:00−4nw41156100 0.0 1014768
03:00−5w311685 0.0 1014532
06:00−6wnw5118098 0.0 1014960
09:00−4wnw5105870 0.0 10131151
12:000nw61035100 0.1 10102802
15:00+1nw6933100 0.5 10092930
18:000nw6103162 0.2 10092797
21:00−4nw4113517 0.3 1013579
16 april, fri
fri1600:00−6nw4114983 0.0 1015733
03:00−5nw51053100 0.0 1017888
06:00−7wnw39693 0.0 1020401
09:00−4nw48520 0.0 1020783
12:00+1nw57224 0.0 10192305
15:00+4nw57175 0.0 10172576
18:00+4wnw58215 0.0 10152232
21:00−2wsw22435 0.0 101815